| time (UTC) | temp F | wind direction | speed knots | gust knots | rain 1hr in | rain 24hr in | rain mn in | humidity % | barometer mb |
| 20260504031525 | 57 | 263 | 0.9 | 8.7 | 0.00 | 0.00 | 0.00 | 84 | 1032.3 |
| 20260504030011 | 57 | 229 | 0.9 | 7.0 | 0.00 | 0.00 | 0.00 | 84 | 1032.3 |
| 20260504024512 | 57 | 299 | 0.9 | 4.3 | 0.00 | 0.00 | 0.00 | 80 | 1032.1 |
| 20260504023016 | 58 | 301 | 1.7 | 7.0 | 0.00 | 0.00 | 0.00 | 82 | 1032.2 |
| 20260504021522 | 58 | 326 | 2.6 | 6.1 | 0.00 | 0.00 | 0.00 | 82 | 1032.3 |
| 20260504020023 | 58 | 302 | 1.7 | 6.1 | 0.00 | 0.00 | 0.00 | 81 | 1032.4 |
| 20260504014510 | 58 | 82 | 0.9 | 4.3 | 0.00 | 0.00 | 0.00 | 79 | 1032.4 |
| 20260504013028 | 58 | 230 | 2.6 | 7.0 | 0.00 | 0.00 | 0.00 | 79 | 1032.5 |
| 20260504011520 | 58 | 234 | 1.7 | 7.8 | 0.00 | 0.00 | 0.00 | 80 | 1032.6 |
| 20260504010023 | 58 | 316 | 0.9 | 6.1 | 0.00 | 0.00 | 0.00 | 81 | 1032.7 |
| 20260504004531 | 58 | 344 | 2.6 | 7.0 | 0.00 | 0.00 | 0.00 | 80 | 1032.7 |
| 20260504003009 | 58 | 222 | 2.6 | 11.3 | 0.00 | 0.00 | 0.00 | 77 | 1032.9 |
| 20260504001517 | 59 | 270 | 2.6 | 8.7 | 0.00 | 0.00 | 0.00 | 79 | 1032.9 |
| 20260504000020 | 60 | 117 | 1.7 | 6.1 | 0.00 | 0.00 | 0.00 | 79 | 1033.2 |
| 20260503234526 | 60 | 232 | 1.7 | 8.7 | 0.00 | 0.00 | 0.00 | 82 | 1033.2 |
| 20260503233027 | 59 | 259 | 0.9 | 7.0 | 0.00 | 0.00 | 0.00 | 84 | 1033.4 |
| 20260503231510 | 59 | 270 | 0.9 | 9.6 | 0.00 | 0.00 | 0.00 | 82 | 1033.4 |
| 20260503230019 | 59 | 15 | 0.9 | 5.2 | 0.00 | 0.00 | 0.00 | 83 | 1033.4 |
| 20260503224520 | 58 | 285 | 2.6 | 6.1 | 0.00 | 0.00 | 0.00 | 83 | 1033.4 |
| 20260503223026 | 58 | 271 | 1.7 | 7.0 | 0.00 | 0.00 | 0.00 | 84 | 1033.3 |
| 20260503221525 | 58 | 257 | 0.9 | 4.3 | 0.00 | 0.00 | 0.00 | 83 | 1033.3 |
| 20260503220016 | 57 | 225 | 2.6 | 7.0 | 0.00 | 0.00 | 0.00 | 84 | 1033.4 |
| 20260503214520 | 57 | 270 | 1.7 | 6.1 | 0.00 | 0.00 | 0.00 | 85 | 1033.4 |
| 20260503213026 | 57 | 257 | 0.9 | 6.1 | 0.00 | 0.00 | 0.00 | 85 | 1033.4 |
| 20260503211526 | 57 | 346 | 0.9 | 6.1 | 0.00 | 0.00 | 0.00 | 85 | 1033.4 |
| 20260503210026 | 56 | 215 | 0.9 | 7.0 | 0.00 | 0.00 | 0.00 | 85 | 1033.5 |
| 20260503204518 | 55 | 297 | 1.7 | 7.0 | 0.00 | 0.00 | 0.00 | 83 | 1033.5 |
| 20260503203042 | 55 | 56 | 0.9 | 7.0 | 0.00 | 0.00 | 0.00 | 86 | 1033.4 |
| 20260503201528 | 55 | 241 | 1.7 | 4.3 | 0.00 | 0.00 | 0.00 | 87 | 1033.3 |
| 20260503200027 | 54 | 293 | 0.9 | 5.2 | 0.00 | 0.00 | 0.00 | 86 | 1033.2 |
| 20260503194538 | 54 | 270 | 0.9 | 4.3 | 0.00 | 0.00 | 0.00 | 85 | 1032.9 |
| 20260503193018 | 54 | 307 | 0.9 | 4.3 | 0.00 | 0.00 | 0.00 | 85 | 1032.8 |
| 20260503191524 | 54 | 245 | 0.0 | 5.2 | 0.00 | 0.00 | 0.00 | 85 | 1032.6 |
| 20260503190035 | 54 | 279 | 0.9 | 7.8 | 0.00 | 0.00 | 0.00 | 85 | 1032.6 |
| 20260503190012 | 54 | 266 | 0.9 | 7.8 | 0.00 | 0.00 | 0.00 | 85 | 1032.6 |
| 20260503184519 | 54 | 232 | 0.9 | 7.0 | 0.00 | 0.00 | 0.00 | 85 | 1032.5 |
| 20260503183008 | 54 | 245 | 0.9 | 5.2 | 0.00 | 0.00 | 0.00 | 85 | 1032.6 |
| 20260503181510 | 54 | 233 | 0.9 | 3.5 | 0.00 | 0.00 | 0.00 | 86 | 1032.6 |
| 20260503180006 | 54 | 302 | 0.9 | 3.5 | 0.00 | 0.00 | 0.00 | 86 | 1032.6 |
| 20260503174510 | 54 | 278 | 0.9 | 7.8 | 0.00 | 0.00 | 0.00 | 86 | 1032.5 |
| 20260503173012 | 54 | 201 | 0.9 | 9.6 | 0.00 | 0.00 | 0.00 | 85 | 1032.4 |
| 20260503171510 | 54 | 79 | 0.9 | 4.3 | 0.00 | 0.00 | 0.00 | 86 | 1032.6 |
| 20260503081525 | 52 | 243 | 0.9 | 4.3 | 0.00 | 0.00 | 0.00 | 89 | 1032.7 |
| 20260503071516 | 52 | 240 | 0.0 | 4.3 | 0.00 | 0.00 | 0.00 | 90 | 1032.4 |
| 20260503054526 | 53 | 258 | 0.0 | 3.5 | 0.00 | 0.00 | 0.00 | 88 | 1032.4 |
| 20260503053034 | 53 | 224 | 0.9 | 7.0 | 0.00 | 0.00 | 0.00 | 87 | 1032.3 |
| 20260503051524 | 53 | 277 | 0.9 | 5.2 | 0.00 | 0.00 | 0.00 | 86 | 1032.3 |
| 20260503050024 | 54 | 240 | 0.0 | 2.6 | 0.00 | 0.00 | 0.00 | 86 | 1032.2 |
| 20260503044515 | 54 | 132 | 0.9 | 5.2 | 0.00 | 0.00 | 0.00 | 85 | 1032.3 |
| 20260503043025 | 55 | 8 | 0.9 | 4.3 | 0.00 | 0.00 | 0.00 | 84 | 1032.3 |
| 20260503041522 | 55 | 243 | 0.9 | 7.8 | 0.00 | 0.00 | 0.00 | 82 | 1032.4 |
| 20260503040033 | 56 | 264 | 0.9 | 4.3 | 0.00 | 0.00 | 0.00 | 81 | 1032.3 |
| 20260503034524 | 57 | 244 | 0.9 | 5.2 | 0.00 | 0.00 | 0.00 | 80 | 1032.5 |
| 20260503033016 | 57 | 236 | 1.7 | 4.3 | 0.00 | 0.00 | 0.00 | 82 | 1032.6 |